CAPE
0 0 0 1 1 1 2 1 0 1 1 1 0 0 0 0 0 0 0 0 7 17 0 1 1 2 3 2 0 2 0 0 0 0 1 1 1 1 0 0 1 6 1
0 0 0 1 1 1 2 2 2 2 2 1 1 0 0 0 0 0 0 0 6 7 0 1 1 3 3 2 2 1 0 0 0 0 2 1 1 0 0 0 0 0 0
0 0 0 0 0 1 1 3 2 2 1 1 1 1 1 0 0 0 0 0 2 2 0 2 2 2 2 3 3 2 2 1 0 0 1 0 0 1 0 0 0 0 0
0 0 0 0 0 0 0 1 1 1 1 1 1 2 0 0 0 0 0 0 9 0 1 0 2 2 1 3 2 2 2 0 0 0 0 3 3 2 0 0 0 0 0
0 0 0 0 0 0 0 0 0 1 1 0 1 0 1 1 0 0 0 0 1 0 1 1 2 2 2 2 3 4 3 1 0 0 0 3 2 2 1 0 0 0 0
0 0 0 0 0 0 0 0 0 1 0 0 3 1 0 7 0 0 0 0 0 0 0 1 1 1 2 1 1 1 0 0 0 0 1 0 3 1 0 0 0 0 0
0 0 0 0 1 1 1 0 0 0 0 1 2 2 2 0 0 0 0 0 0 0 1 2 1 1 2 3 0 0 0 0 0 0 0 0 1 1 0 0 1 0 0
0 0 0 1 1 0 1 2 1 0 1 2 0 1 4 1 0 0 0 0 0 1 0 2 1 1 2 2 1 2 0 0 0 0 0 0 0 0 0 0 0 0 0
0 0 0 0 0 0 1 1 2 2 2 1 0 1 1 0 0 0 0 0 0 0 2 3 2 2 1 0 0 2 0 0 0 0 0 0 0 0 0 0 2 1 1
0 0 0 0 0 0 0 2 1 0 0 1 1 9 0 2 1 0 0 0 0 1 1 2 1 3 2 0 1 0 0 0 0 0 0 0 0 0 0 0 0 0 0
0 0 0 0 0 0 0 0 0 0 0 0 0 0 0 3 1 0 1 1 0 2 2 2 3 2 3 0 0 0 0 0 0 0 0 2 2 2 1 0 0 0 0
0 0 0 0 0 0 0 0 1 1 1 0 0 0 0 0 1 0 1 1 1 0 2 2 2 1 2 1 0 0 0 0 0 0 0 1 2 5 1 0 0 0 0
0 0 0 0 0 0 0 0 0 0 0 1 1 1 1 0 0 1 2 3 1 2 3 2 2 2 2 1 0 0 0 0 0 0 0 0 0 2 1 0 0 0 0
0 0 0 0 0 0 0 0 0 0 0 0 0 0 1 1 1 0 1 1 2 3 2 2 1 0 0 1 0 0 0 0 0 0 0 1 2 3 2 1 1 0 0
0 0 0 0 0 0 0 0 0 0 0 0 0 0 1 1 0 0 1 2 2 3 2 2 3 3 2 2 1 0 0 0 0 0 0 3 4 3 2 2 2 2 0
0 0 0 0 0 0 0 0 1 1 1 0 1 0 0 1 2 1 1 1 1 1 2 3 3 4 4 4 3 3 3 2 3 3 3 3 3 3 2 1 3 1 0
0 0 0 0 0 0 0 0 0 0 1 1 0 1 0 0 1 4 4 2 1 0 2 2 2 2 3 3 2 2 1 1 1 2 3 3 4 3 1 1 1 0 1
0 0 0 0 0 0 0 0 0 0 0 0 1 1 1 1 1 1 2 1 2 2 2 1 1 1 1 1 2 1 1 1 2 2 2 2 2 2 1 0 0 1 1
0 0 0 0 0 0 0 0 0 0 0 0 0 0 0 1 2 2 1 2 2 2 2 1 1 2 1 1 1 1 1 2 2 2 1 1 1 1 1 1 1 2 1
0 0 0 0 0 0 0 0 0 0 0 0 0 0 0 0 0 0 0 0 1 1 1 0 0 0 0 0 1 1 1 0 1 1 1 1 2 1 0 0 0 1 1
0 0 0 0 0 0 0 0 0 0 0 0 0 2 0 0 0 0 0 0 0 0 0 0 0 0 0 0 0 0 0 0 1 2 1 0 0 0 0 1 1 0 0
0 0 0 0 0 0 0 0 0 0 0 0 0 0 0 0 0 0 0 0 0 0 0 0 0 0 0 0 0 0 0 0 0 1 2 0 0 0 0 0 0 0 0
0 0 0 0 0 0 0 0 0 0 0 0 0 0 0 0 0 0 0 0 0 0 0 0 0 0 0 0 0 0 0 0 0 0 0 0 0 0 0 0 0 0 0
0 0 0 0 0 0 0 0 0 0 0 0 0 0 0 0 0 0 0 0 0 0 0 0 0 0 0 0 0 0 0 0 0 0 0 0 0 0 0 0 0 0 0
0 0 0 0 0 0 0 0 0 0 0 0 0 0 0 0 0 0 0 0 0 0 0 0 0 1 0 0 0 1 0 0 0 0 0 0 0 0 0 0 0 0 0
0 0 0 0 0 0 0 0 0 0 0 0 0 0 0 0 0 0 0 0 0 0 0 0 0 0 0 0 0 0 0 1 0 0 0 0 0 0 0 0 0 0 0
CIN
0 0 0 0 -1 -1 0 0 0 0 -1 -1 0 0 0 0 0 0 0 0 0 -5 0 0 0 0 0 0 0 0 0 0 0 0 0 0 0 0 0 -6 -18 -18 -6
0 0 0 0 -1 0 0 0 0 0 0 0 -1 0 0 0 0 0 0 0 0 -5 0 0 0 0 0 0 0 0 0 0 0 0 0 0 0 0 0 0 0 0 0
0 0 0 -1 -1 0 0 0 -1 0 -1 -1 0 -1 -1 0 0 0 0 0 0 -5 0 0 0 0 0 0 0 0 0 0 0 0 0 0 0 0 0 0 0 0 0
0 0 0 0 0 0 -1 0 0 -1 -1 0 -1 -1 -1 0 0 0 0 0 -2 0 0 0 0 0 0 0 0 0 0 0 0 0 0 0 0 0 0 0 0 0 0
0 0 0 0 0 0 0 0 -1 -1 -1 -2 0 0 -1 0 0 0 0 0 -2 -1 0 0 0 0 0 0 0 0 0 0 0 0 0 0 0 0 0 0 0 0 0
0 0 0 0 0 0 0 0 -1 -1 -1 0 0 0 0 -1 0 0 0 0 0 0 0 0 0 0 0 0 0 0 0 0 0 0 0 0 0 0 0 0 0 0 0
0 0 0 0 0 0 0 0 0 0 0 0 0 0 -1 0 0 0 0 0 0 0 0 0 0 0 0 0 0 0 0 0 0 0 0 0 0 0 0 0 0 0 0
0 0 0 0 0 0 0 0 0 0 0 0 0 0 0 0 0 0 0 0 0 0 0 0 0 0 0 0 0 0 0 0 0 0 0 0 0 0 0 0 0 0 0
0 0 0 0 0 0 0 0 0 0 0 0 0 0 0 0 0 0 0 -6 -1 0 0 0 0 0 0 0 0 0 0 0 0 0 0 0 0 0 0 0 0 0 0
0 0 0 0 0 0 0 0 0 0 0 0 0 -1 0 0 0 0 0 0 0 0 0 0 0 0 0 0 0 0 0 0 0 0 0 0 0 0 0 0 0 0 0
0 0 0 0 0 0 0 0 0 0 0 0 0 0 0 -17 0 0 -11 0 0 0 0 0 0 0 0 0 0 0 0 0 0 0 0 0 0 0 0 0 0 0 0
0 0 0 0 0 0 0 0 0 0 0 0 0 0 0 0 0 0 -1 0 0 0 0 0 0 0 0 0 0 0 0 0 0 0 0 0 0 0 0 0 0 0 0
0 0 0 0 0 0 0 0 0 0 0 0 0 0 0 0 0 0 0 0 0 0 0 0 0 0 0 0 0 0 0 0 0 0 0 0 0 0 0 0 0 0 0
0 0 0 0 0 0 0 0 0 0 0 0 0 0 0 0 0 0 0 0 0 0 0 0 0 0 0 0 0 0 0 0 0 0 0 0 0 0 0 0 0 0 0
0 0 0 0 0 0 0 0 0 0 0 0 0 0 0 0 0 0 0 0 0 0 0 0 0 0 0 0 0 0 0 0 0 0 0 0 0 0 0 0 0 0 0
0 0 0 0 0 0 0 0 0 0 0 0 0 0 0 0 0 0 0 0 0 0 0 0 0 0 0 0 0 0 0 0 0 0 0 0 0 0 0 0 0 0 0
0 0 0 0 0 0 0 0 0 0 0 0 0 0 0 0 0 0 0 0 0 0 0 0 0 0 0 0 0 0 0 0 0 0 0 0 0 0 0 0 0 0 0
0 0 0 0 0 0 0 0 0 0 0 0 0 0 0 0 0 0 0 0 0 0 0 0 0 0 0 0 0 0 0 0 0 0 0 0 0 0 0 0 0 0 0
0 0 0 0 0 0 0 0 0 0 0 0 0 0 0 0 0 0 0 0 0 0 0 0 0 0 0 0 0 0 0 0 0 0 0 0 0 0 0 0 0 0 0
0 0 0 0 0 0 0 0 0 0 0 0 0 0 0 0 0 0 0 0 0 0 0 0 0 0 0 0 0 0 0 0 0 0 0 0 0 0 0 0 0 0 0
0 0 0 0 0 0 0 0 0 0 0 0 0 0 0 0 0 0 0 0 0 0 0 0 0 0 0 0 0 0 0 0 0 0 0 0 0 0 0 0 0 0 0
0 0 0 0 0 0 0 0 0 0 0 0 0 0 0 0 0 0 0 0 0 0 0 0 0 0 0 0 0 0 0 0 0 0 0 0 0 0 0 0 0 0 0
0 0 0 0 0 0 0 0 0 0 0 0 0 0 0 0 0 0 0 0 0 0 0 0 0 0 0 0 0 0 0 0 0 0 0 0 0 0 0 0 0 0 0
0 0 0 0 0 0 0 0 0 0 0 0 0 0 0 0 0 0 0 0 0 0 0 0 0 0 0 0 0 0 0 0 0 0 0 0 0 0 0 0 0 0 0
0 0 0 0 0 0 0 0 0 0 0 0 0 0 0 0 0 0 0 0 0 0 0 0 0 0 0 0 0 0 0 0 0 0 0 0 0 0 0 0 0 0 0
0 0 0 0 0 0 0 0 0 0 0 0 0 0 0 0 0 0 0 0 0 0 0 0 0 0 0 0 0 0 0 0 0 0 0 0 0 0 0 0 0 0 0
Wind_Speed
40 46 49 48 47 51 53 53 54 54 55 57 59 59 60 60 59 58 58 57 56 53 47 47 44 38 39 34 32 30 20 22 25 27 25 22 22 24 20 20 21 21 22
43 45 47 50 49 50 54 53 53 54 53 56 57 59 60 60 59 59 58 57 57 53 50 47 45 38 36 32 33 39 27 22 24 22 22 22 26 23 22 22 21 20 19
35 40 42 42 49 49 53 52 52 53 53 54 55 58 58 59 58 59 55 55 56 52 49 47 45 40 38 36 35 34 31 29 22 25 22 22 23 21 23 22 21 20 18
24 14 39 37 51 50 50 51 52 52 54 53 55 54 55 57 56 58 56 53 54 50 48 46 43 42 37 33 32 28 28 28 23 19 20 21 20 18 18 19 20 19 18
20 14 14 23 45 47 45 47 49 50 52 52 51 54 52 55 56 57 55 54 52 52 47 44 44 41 38 35 30 28 26 24 22 20 20 21 19 17 17 15 16 17 17
17 14 17 24 37 40 34 40 43 46 50 50 51 51 53 52 55 56 54 53 52 52 48 45 43 42 39 35 32 28 27 24 23 19 19 18 19 17 14 16 15 19 20
16 15 23 23 29 26 28 32 32 40 44 47 50 50 51 51 54 54 53 52 52 48 49 46 42 39 37 33 30 26 24 24 20 18 17 15 14 15 14 15 17 17 17
19 21 21 17 17 10 9 22 25 34 39 41 45 49 48 49 52 51 51 50 50 48 47 44 43 40 36 34 31 28 25 22 19 17 15 13 11 15 17 17 17 15 13
24 18 15 12 8 15 19 15 22 27 31 37 42 46 47 46 49 51 48 49 50 46 45 43 41 40 36 33 31 28 25 23 19 16 13 11 11 13 14 13 15 16 15
27 21 14 14 9 1 13 29 28 20 27 34 39 42 43 43 44 48 47 47 49 47 42 41 40 39 35 33 31 29 26 23 19 16 14 12 12 13 16 16 15 17 15
31 25 18 12 13 8 3 9 15 15 17 22 28 35 39 39 39 43 44 47 46 44 42 38 36 34 34 32 30 28 26 21 19 15 13 11 10 10 9 10 13 15 15
31 29 24 17 13 11 7 4 5 12 15 19 25 26 29 34 36 39 41 41 41 41 41 36 35 34 31 29 28 25 22 20 18 17 16 14 12 12 11 9 9 10 14
28 31 30 24 17 14 12 8 6 7 10 14 20 24 24 26 27 33 34 35 35 34 33 32 32 31 26 27 24 24 22 22 20 18 16 14 14 13 12 10 11 11 13
24 26 28 29 26 21 18 13 15 8 7 12 18 21 25 26 23 25 26 27 28 27 27 27 26 27 27 22 23 22 22 21 21 19 17 13 12 14 16 16 17 15 14
24 24 24 24 24 24 23 23 22 21 14 10 11 16 17 15 20 23 23 26 27 29 27 23 22 22 22 22 23 22 22 20 20 18 17 16 17 19 21 19 18 17 18
31 27 22 21 21 21 20 21 22 26 27 26 25 21 19 20 22 23 23 23 24 24 21 20 20 18 18 17 18 18 17 16 16 15 14 12 13 14 14 13 12 12 11
32 28 23 21 18 19 20 21 21 19 21 24 23 23 22 21 23 23 22 21 20 22 19 17 16 16 15 14 13 13 13 14 15 15 14 12 11 11 11 10 10 9 8
24 25 25 22 20 17 15 16 16 18 17 17 16 19 20 18 18 17 17 19 18 18 17 17 15 14 13 13 12 12 12 11 11 13 12 13 13 13 12 11 11 10 9
24 24 22 21 21 17 13 12 13 14 15 16 15 14 13 16 17 18 16 15 14 13 12 12 10 9 10 10 9 8 9 9 10 10 11 13 14 10 10 10 8 7 7
23 22 23 22 21 20 17 15 14 16 17 14 16 15 11 12 16 14 13 11 10 10 9 8 6 6 6 7 8 8 9 10 10 10 10 11 11 11 10 9 8 8 9
21 21 21 20 21 20 19 17 16 14 11 12 13 12 14 15 13 12 10 10 8 7 6 5 4 4 3 4 5 6 6 7 9 10 10 11 11 9 9 11 13 13 12
21 20 20 20 20 19 19 17 16 16 16 14 11 10 12 12 12 10 10 9 7 6 5 4 3 3 3 3 4 5 5 6 6 9 10 11 11 10 11 12 12 12 9
22 21 19 19 19 19 18 18 17 15 14 13 13 13 13 11 10 11 9 8 7 7 7 6 5 5 6 6 7 7 7 8 7 7 8 10 10 10 10 10 10 10 10
23 22 22 21 20 19 18 18 18 17 16 15 14 13 12 11 11 10 10 10 9 9 8 8 8 8 8 9 9 9 9 9 8 8 7 7 8 8 9 9 10 10 9
24 23 22 21 22 21 21 19 18 17 17 17 16 16 16 15 14 13 13 12 11 10 11 11 11 12 12 12 12 12 12 11 11 11 11 10 9 9 9 10 10 10 9
21 23 24 24 23 21 21 21 21 20 19 18 17 17 17 17 17 16 16 16 16 16 15 15 15 15 15 15 15 15 14 14 13 12 11 11 11 11 12 12 12 13 12
Wind_Direction
311 297 287 283 278 268 261 258 254 252 248 244 242 241 241 240 239 240 240 240 240 236 232 231 232 233 234 235 234 234 244 251 254 250 246 246 242 243 240 242 246 243 237
315 302 292 280 275 268 259 255 252 249 247 244 242 239 238 238 238 238 238 237 237 232 231 230 231 231 233 234 231 236 243 240 251 250 249 247 248 242 241 243 248 256 246
326 310 293 287 273 266 257 252 250 247 245 242 240 237 236 235 236 235 237 235 235 232 229 228 228 228 231 234 232 235 242 245 246 248 252 251 256 247 246 248 248 253 252
336 294 303 300 266 262 257 251 247 245 242 240 238 236 236 235 234 233 234 234 233 232 228 229 228 226 224 225 228 231 237 242 244 246 254 252 256 255 244 234 240 246 242
342 325 312 256 262 261 257 250 244 242 239 237 236 235 235 233 231 230 231 231 232 230 228 227 227 226 224 227 228 230 230 239 238 244 252 255 254 240 229 236 233 230 242
350 333 286 265 259 264 260 245 240 239 235 234 233 233 232 232 229 229 229 229 231 228 228 228 229 228 227 226 228 225 229 227 236 244 248 248 249 237 233 219 216 228 240
360 1 302 290 278 263 249 238 239 234 230 230 231 230 229 230 227 228 226 227 226 227 226 227 226 226 223 223 222 223 225 227 224 230 233 225 220 214 216 217 215 216 236
11 23 322 314 294 352 255 238 234 227 226 228 229 226 228 228 225 226 224 225 224 226 225 225 224 223 223 221 223 227 228 229 230 239 234 224 222 197 199 208 212 235 248
11 21 344 341 323 147 133 236 229 228 228 228 226 223 223 225 224 223 223 223 223 223 224 223 222 223 221 218 220 221 223 234 238 238 235 227 216 196 190 190 207 211 238
20 25 34 350 348 205 191 158 171 227 227 225 221 219 218 224 223 222 221 220 219 220 220 221 222 220 214 216 215 216 221 226 226 235 246 244 219 205 190 192 200 212 223
33 35 13 40 0 359 162 185 200 214 216 212 209 213 219 222 224 219 216 215 215 216 218 217 217 212 209 208 213 218 221 217 219 218 221 214 210 195 204 210 197 203 213
38 42 32 32 51 21 30 57 156 185 193 200 208 217 221 223 221 213 209 212 213 215 217 214 214 209 212 213 214 215 208 209 211 212 212 219 216 208 202 220 231 241 252
42 46 49 43 46 42 59 67 132 164 189 203 208 207 207 203 201 200 207 209 208 210 209 211 203 202 200 205 201 200 202 209 210 208 209 221 227 225 220 230 245 253 265
31 42 49 56 56 52 37 45 42 46 146 168 181 183 183 188 199 199 197 190 194 191 182 184 186 194 198 201 206 208 212 214 217 218 225 228 225 228 234 241 244 246 251
15 28 37 49 55 62 67 56 49 50 67 117 148 160 172 171 176 178 176 173 172 167 168 177 186 193 198 210 214 216 217 220 222 227 232 234 237 237 244 244 240 244 244
6 11 26 40 49 53 61 72 63 57 61 69 75 90 104 116 120 123 134 136 149 152 161 171 178 183 190 193 197 205 207 205 212 214 217 213 213 215 213 218 226 226 223
5 5 10 19 37 45 48 54 61 62 62 63 68 76 86 100 100 105 110 120 132 132 137 144 151 159 162 161 166 177 181 197 202 207 200 198 190 185 187 199 213 206 208
351 358 4 7 14 27 47 50 63 68 72 73 73 72 74 81 87 96 116 122 116 119 130 136 143 144 145 153 162 163 175 185 194 205 202 208 209 207 207 210 218 211 203
348 350 353 359 5 11 25 36 42 45 56 62 66 66 68 71 76 74 80 94 118 127 132 145 159 163 166 176 171 162 178 190 197 200 202 209 212 201 206 210 207 200 196
338 343 351 354 355 1 5 13 18 23 30 41 42 41 53 64 63 67 74 88 102 105 111 120 139 160 181 196 201 201 202 211 215 216 216 221 221 220 219 216 216 220 236
329 331 336 342 351 356 358 358 359 4 13 21 26 29 35 44 51 54 59 60 70 84 102 122 146 144 175 202 217 220 224 231 233 233 236 239 240 238 241 244 246 248 248
319 327 329 330 336 340 346 349 353 358 3 5 1 4 16 25 28 30 32 33 31 33 34 38 33 10 335 295 269 261 259 260 256 254 251 253 254 256 255 254 253 254 251
307 311 320 321 325 328 331 331 335 334 332 341 347 353 356 359 1 7 5 354 350 353 354 355 349 336 322 329 315 298 284 281 283 287 273 268 268 268 267 262 259 256 252
301 304 305 309 316 317 317 314 318 321 324 317 319 327 331 333 335 337 337 333 337 333 324 319 315 316 315 317 311 303 303 304 304 300 295 289 284 279 275 269 262 256 249
295 297 300 302 301 305 308 312 315 313 314 313 312 307 305 307 309 308 306 308 312 316 315 309 302 299 296 295 295 296 298 300 297 295 293 292 287 282 279 274 266 259 249
297 294 294 294 297 300 302 302 302 304 307 306 307 308 308 304 301 300 300 299 297 297 297 298 299 300 298 298 299 298 302 300 298 297 296 294 289 284 279 272 264 259 252